Location: Trois-Rivi�res
(46.3500°N, 72.5500°W)
Time: 09:00:16
(UTC-04:00)

ISS - Pass Details

Date: 13 October 2017
Orbit: 401 x 408 km, 51.6° (Epoch: 19 October)

Event Time Altitude Azimuth Distance (km) Brightness Sun altitude
Rises 18:41:26 0° 296° (WNW) 2,325 1.2 -6.7°
Reaches altitude 10° 18:43:31 10° 296° (WNW) 1,464 0.1 -7.1°
Maximum altitude 18:46:47 84° 211° (SSW) 412 -3.8 -7.7°
Drops below altitude 10° 18:50:04 10° 121° (ESE) 1,462 -1.5 -8.2°
Enters shadow 18:50:31 - 120° (ESE) 1,646 -1.2 -8.3°
